Skip Page Navigation
NASA JPL Caltech
NASA Logo - Jet Propulsion Laboratory + View the NASA Portal
+ Center for Near-Earth Object Studies
JPL Home Earth Solar System Stars & Galaxies Technology
JPL Solar System Dynamics
BODIES ORBITS EPHEMERIDES TOOLS PHYSICAL DATA DISCOVERY FAQ SITE MAP
IMPORTANT: The SSD Announcement email list is now available. Major changes are coming in the near future, including possible hostname and/or URL changes. To be notified of such changes, subscribe to this email list.

Please visit this page for more details.


JPL Small-Body Database Browser
Search: [ help ]  
467317 (2000 QW7)
Classification: Amor [NEO, PHA]          SPK-ID: 2467317
Ephemeris | Orbit Diagram | Orbital Elements | Mission Design | Physical Parameters | Discovery Circumstances | Close-Approach Data ]

[ hide orbit diagram ]

For accurate long-term ephemerides, please instead use our Horizons system.This orbit viewer was implemented using two-body methods, and hence should not be used for determining accurate long-term trajectories (over several years or decades) or planetary encounter circumstances.


[ revert to old Java-based viewer ]

Orbital Elements at Epoch 2458600.5 (2019-Apr-27.0) TDB
Reference: JPL 75 (heliocentric ecliptic J2000)
 Element Value Uncertainty (1-sigma)   Units 
e .4681603130435366 1.0799e-08  
a 1.946360706606463 8.6279e-10 au
q 1.035151868905942 2.0985e-08 au
i 4.166677965950066 3.9067e-06 deg
node 158.6735867455915 7.7939e-06 deg
peri 190.7338584752627 1.2313e-05 deg
M 309.308736306012 3.73e-06 deg
tp 2458740.157427071325
(2019-Sep-13.65742707)
1.0343e-05 TDB
period 991.8212741585287
2.72
6.5949e-07
1.806e-09
d
yr
n .3629686208388983 2.4135e-10 deg/d
Q 2.857569544306983 1.2667e-09 au
  Orbit Determination Parameters
   # obs. used (total)      964  
   # delay obs. used      0  
   # Doppler obs. used      2  
   data-arc span      7015 days (19.21 yr)  
   first obs. used      2000-08-03  
   last obs. used      2019-10-18  
   planetary ephem.      DE431  
   SB-pert. ephem.      SB431-N16  
   condition code      0  
   norm. resid. RMS      .39205  
   source      ORB  
   producer      Otto Matic  
   solution date      2019-Oct-19 06:11:34  

Additional Information
 Earth MOID = .0292725 au 
 Jupiter MOID = 2.57523 au 
 T_jup = 3.751 
[ show covariance matrix ]

Ephemeris | Orbit Diagram | Orbital Elements | Mission Design | Physical Parameters | Discovery Circumstances | Close-Approach Data ]

Physical Parameter Table
Parameter Symbol Value Units Sigma Reference Notes
absolute magnitude H 19.8   n/a MPO264918  
rotation period rot_per 71.3 h n/a LCDB (Rev. 2019-January); Warner et al., 2009 Result based on less than full coverage, so that the period may be wrong by 30 percent or so.
Published Reference List:
[Pravec, P.; Wolf, M.; Sarounova, L. (2000) http://www.asu.cas.cz/~ppravec/neo.htm]

467317 (2000 QW7)          Discovered 2000-Aug-26 by NEAT at Haleakala
Reference: Last Updated: 2016-05-24

[ hide close-approach data ]
Close-Approach Data   ...sorted by Date/Time (TDB)
Date/Time (TDB) Time Uncertainty
(days_HH:MM)
Body Nominal Distance (au) Minimum Distance (au) Maximum Distance (au) V-relative (km/s) V-infinity (km/s) JD (TDB) Time Uncertainty (minutes) Semi-major axis (km) Semi-minor axis (km) range-LOV angle (deg) N-sigma BP Orbit Ref. Reference Modified
1902-Oct-01 18:01 < 00:01 Earth 0.0922572350986688 0.0922558537876053 0.0922586164102043 8.1546469940761 8.15110456554918 2416024.250942101 0.32269434951232 69.6666886469909 4.66145513769692 8.75498726267058 395157.563230455 T 75 CATAB v2.0f-lin.ifort 2019-Oct-19 06:11:47 2019-Oct-19 06:11
1913-Jul-14 11:45 < 00:01 Earth 0.453627693734959 0.453626521153925 0.453628866316019 19.4098979325185 19.409595315791 2419962.989881511 0.0998693911119136 58.6333066797617 4.86888095879562 -4.28469889557068 1320633.71087658 T 75 CATAB v2.0f-lin.ifort 2019-Oct-19 06:11:47 2019-Oct-19 06:11
1932-Aug-28 20:50 < 00:01 Earth 0.0339797142620038 0.033979564695448 0.033979863829002 6.64567840186403 6.63386868823693 2426948.368282761 0.130962967290613 9.86089332170688 2.39117745778872 42.4460299199133 1446701.17905391 T 75 CATAB v2.0f-lin.ifort 2019-Oct-19 06:11:47 2019-Oct-19 06:11
1951-Oct-10 03:17 < 00:01 Earth 0.142409722392969 0.14240848866608 0.142410956120109 9.83109807935016 9.82919475532192 2433929.636575204 0.167271885802996 62.2574470503445 5.41827968708503 8.92060104827882 555388.482190455 T 75 CATAB v2.0f-lin.ifort 2019-Oct-19 06:11:47 2019-Oct-19 06:11
1970-Oct-30 15:08 < 00:01 Earth 0.424990005606831 0.424988938691129 0.424991072522532 18.4839029574791 18.4835637667723 2440890.130218461 0.0506082456362505 53.294199982429 5.78081657982401 3.39974470247907 1158777.65215998 T 75 CATAB v2.0f-lin.ifort 2019-Oct-19 06:11:47 2019-Oct-19 06:11
1981-Jul-31 18:28 < 00:01 Earth 0.209329727808908 0.209329020577452 0.209330435040376 12.21324766403 12.2122054214423 2444817.269391972 0.079742297616292 35.329315283181 3.79729459976308 -3.52238989080705 808386.178228522 T 75 CATAB v2.0f-lin.ifort 2019-Oct-19 06:11:47 2019-Oct-19 06:11
2000-Sep-01 12:56 < 00:01 Earth 0.0316549433243215 0.0316548832481632 0.0316550034004797 6.48075499622305 6.46775386763525 2451789.038777883 0.0120202976031456 2.9966013732405 1.57164120144337 -0.424405913912579 1637347.35669075 T 75 CATAB v2.0f-lin.ifort 2019-Oct-19 06:11:47 2019-Oct-19 06:11
2019-Sep-14 23:54 < 00:01 Earth 0.0356359083650069 0.0356358037460982 0.0356360129839581 6.41864013366645 6.4069807358379 2458741.495542415 0.0944940708886761 5.73863923658838 3.0183274830855 -29.3605901143817 1187200.08179512 T 75 CATAB v2.0f-lin.ifort 2019-Oct-19 06:11:47 2019-Oct-19 06:11
2038-Oct-19 23:01 < 00:01 Earth 0.237831538234969 0.237830227245775 0.237832849224326 12.8491690132924 12.8482970813139 2465716.458844510 0.160685586539038 66.0848031507517 6.19283745365011 8.48088692796784 804874.74092403 T 75 CATAB v2.0f-lin.ifort 2019-Oct-19 06:11:47 2019-Oct-19 06:11
2049-Jul-20 14:41 < 00:01 Earth 0.385205558168397 0.385203792340909 0.385207323995906 17.438430159794 17.4380335007464 2469643.111969094 0.161256100862929 88.2403567634366 4.24209150532416 -3.74738187813305 929474.585889608 T 75 CATAB v2.0f-lin.ifort 2019-Oct-19 06:11:47 2019-Oct-19 06:11
2068-Aug-12 20:13 < 00:01 Earth 0.105526842811681 0.105524929766219 0.105528755857131 8.95192300625654 8.9491020165088 2476606.342212901 0.404132163819953 95.3842429105107 2.88664369373469 0.866228313842905 149364.30771701 T 75 CATAB v2.0f-lin.ifort 2019-Oct-19 06:11:47 2019-Oct-19 06:11
2087-Sep-19 12:12 < 00:01 Earth 0.0406747497098767 0.0406745675891207 0.0406749318306419 6.56852541227803 6.55854497316935 2483583.008525355 0.105110759234163 9.14103259267293 3.17323736396864 -7.14353436517643 657076.701690635 T 75 CATAB v2.0f-lin.ifort 2019-Oct-19 06:11:47 2019-Oct-19 06:11
2106-Nov-02 16:04 < 00:01 Earth 0.422450709233489 0.422447806331428 0.42245361213579 18.4489002523474 18.4485583753709 2490566.169492163 0.229589597379457 145.632673481831 6.63229724860964 6.30958842808432 962140.285545995 T 75 CATAB v2.0f-lin.ifort 2019-Oct-19 06:11:47 2019-Oct-19 06:11
2117-Aug-10 04:20 < 00:01 Earth 0.140729037518095 0.140725280735584 0.140732794300599 10.1130831967498 10.1112108543855 2494499.680247087 0.616037638140201 187.326597095648 3.10514645675914 -0.872296046786485 120679.667740416 T 75 CATAB v2.0f-lin.ifort 2019-Oct-19 06:11:47 2019-Oct-19 06:11
2136-Oct-10 07:55 < 00:01 Earth 0.124663552187533 0.124661094643872 0.124666009733037 9.14305464790353 9.14071668791945 2501500.829626005 0.482417451804212 124.859811905278 5.57798605748861 11.121786879551 524025.206876352 T 75 CATAB v2.0f-lin.ifort 2019-Oct-19 06:11:47 2019-Oct-19 06:11
2147-Jul-20 13:51 < 00:01 Earth 0.427297647700419 0.427297257064618 0.427298038336221 18.7679102757206 18.7675780220554 2505436.077016497 0.0462955246881376 19.4943390849234 4.14083864666036 -2.32876546961036 2840173.72271193 T 75 CATAB v2.0f-lin.ifort 2019-Oct-19 06:11:47 2019-Oct-19 06:11
2166-Aug-30 17:22 00:01 Earth 0.0400830817996427 0.0400812281441688 0.0400849354899473 6.79946165959148 6.78967827161147 2512417.223322788 1.20724101782276 109.650471203832 2.29677710944143 32.6009985571405 1339951.6576033 T 75 CATAB v2.0f-lin.ifort 2019-Oct-19 06:11:47 2019-Oct-19 06:11
2185-Oct-08 18:47 00:02 Earth 0.106622662420423 0.10661334566907 0.106631979207917 8.5697103567564 8.56679379888064 2519396.282329991 2.24516049061245 474.794898315571 5.42652727288142 11.9790736020426 485835.335462676 T 75 CATAB v2.0f-lin.ifort 2019-Oct-19 06:11:47 2019-Oct-19 06:11
Ephemeris | Orbit Diagram | Orbital Elements | Mission Design | Physical Parameters | Discovery Circumstances | Close-Approach Data ]
ABOUT SSD CREDITS/AWARDS PRIVACY/COPYRIGHT GLOSSARY LINKS
FirstGov 2019-Oct-20 02:12 UT
(server date/time)  
NASA Home Page
Site Manager:   Ryan S. Park
Webmaster  Alan B. Chamberlin